Location: Hilton Head Island
(32.2163°N, 80.7526°W)
Time: 02:44:29
(UTC-04:00)

Vanguard 1 - Pass Details

Date: 16 February 2026
Orbit: 653 x 3818 km, 34.2° (Epoch: 9 March)

Event Time Altitude Azimuth Distance (km) Brightness Sun altitude
Rises 18:39:14 0° 276° (W) 5,639 15.8 -6.9°
Reaches altitude 10° 18:42:17 10° 277° (W) 4,967 15.1 -7.5°
Maximum altitude 18:58:30 85° 7° (N) 3,373 12.7 -10.9°
Enters shadow 19:19:42 16° 97° (E) 6,393 13.5 -15.3°
Drops below altitude 10° 19:22:27 10° 98° (E) 6,882 - -15.9°
Sets 19:27:37 0° 99° (E) 7,792 - -17.0°
